Telluride, CO

2:44 AM MDT on October 17, 2017 (GMT -0600)
Telluride Regional

Weather History for KTEX - November, 2012

Change the Weather History Date:

Thursday, November 8, 2012

  Actual Average Record
Temperature  
Mean Temperature 44 °F -  
Max Temperature 53 °F 40 °F 64 °F (2006)
Min Temperature 35 °F 25 °F 21 °F (2011)
Degree Days  
Heating Degree Days 21    
Moisture  
Dew Point 15 °F    
Average Humidity 30    
Maximum Humidity 48    
Minimum Humidity 14    
Precipitation  
Precipitation 0.00 in - - ()
Sea Level Pressure  
Sea Level Pressure 30.11 in    
Wind  
Wind Speed 10 mph (SE)    
Max Wind Speed 25 mph    
Max Gust Speed 43 mph    
Visibility 10 miles    
Events      
Averages and records for this station are not official NWS values.
T = Trace of Precipitation, MM = Missing Value Source: NWS Daily Summary

Daily Weather History Graph

Daily Weather History Graph

Search for Another Location

Airport or City:

Trip Planner

Search our weather history database for the weather conditions in past years. The results will help you decide how hot, cold, wet, or windy it might be!

Date:

Astronomy

Nov. 08, 2012 Rise Set
Actual Time 6:45 AM MST 5:05 PM MST
Civil Twilight 6:17 AM MST 5:32 PM MST
Nautical Twilight 5:46 AM MST 6:04 PM MST
Astronomical Twilight 5:15 AM MST 6:35 PM MST
Moon 12:49 AM MST (11/8) 1:42 PM MST (11/8)
Length of Visible Light 11h 15m
Length of Day
10h 19m
Waning Crescent, 32% of the Moon is Illuminated
Nov 8
Waning Crescent
Nov 13
New
Nov 20
First Quarter
Nov 28
Full
Dec 6
Last Quarter

Hourly Weather History & Observations

Time (MST) Temp. Windchill Dew Point Humidity Pressure Visibility Wind Dir Wind Speed Gust Speed Precip Events Conditions
12:15 AM 37.4 °F 32.1 °F 14.0 °F 38% 30.24 in 10.0 mi SE 6.9 mph - N/A   Clear
12:35 AM 37.4 °F 32.1 °F 14.0 °F 38% 30.24 in 10.0 mi ESE 6.9 mph - N/A   Clear
12:55 AM 37.4 °F 32.8 °F 14.0 °F 38% 30.24 in 10.0 mi ESE 5.8 mph - N/A   Clear
1:15 AM 35.6 °F 29.2 °F 14.0 °F 41% 30.24 in 10.0 mi ESE 8.1 mph - N/A   Clear
1:35 AM 37.4 °F 30.8 °F 14.0 °F 38% 30.23 in 10.0 mi ESE 9.2 mph - N/A   Clear
1:55 AM 37.4 °F 30.8 °F 14.0 °F 38% 30.22 in 10.0 mi ESE 9.2 mph - N/A   Clear
2:15 AM 37.4 °F 32.1 °F 15.8 °F 41% 30.22 in 10.0 mi ESE 6.9 mph - N/A   Clear
2:35 AM 37.4 °F 33.8 °F 15.8 °F 41% 30.22 in 10.0 mi ESE 4.6 mph - N/A   Clear
2:55 AM 37.4 °F 32.8 °F 15.8 °F 41% 30.21 in 10.0 mi ESE 5.8 mph - N/A   Clear
3:15 AM 37.4 °F 32.1 °F 17.6 °F 45% 30.20 in 10.0 mi SSE 6.9 mph - N/A   Clear
3:35 AM 35.6 °F 29.9 °F 17.6 °F 48% 30.19 in 10.0 mi ESE 6.9 mph - N/A   Clear
3:55 AM 37.4 °F 32.8 °F 17.6 °F 45% 30.19 in 10.0 mi ESE 5.8 mph - N/A   Clear
4:15 AM 37.4 °F 33.8 °F 17.6 °F 45% 30.18 in 10.0 mi SE 4.6 mph - N/A   Clear
4:35 AM 37.4 °F 34.9 °F 17.6 °F 45% 30.18 in 10.0 mi SE 3.5 mph - N/A   Clear
4:55 AM 41.0 °F 39.0 °F 15.8 °F 36% 30.18 in 10.0 mi ESE 3.5 mph - N/A   Clear
5:15 AM 41.0 °F - 17.6 °F 39% 30.18 in 10.0 mi Calm Calm - N/A   Clear
5:35 AM 41.0 °F 38.0 °F 17.6 °F 39% 30.18 in 10.0 mi NE 4.6 mph - N/A   Clear
5:55 AM 42.8 °F 41.1 °F 17.6 °F 36% 30.17 in 10.0 mi ENE 3.5 mph - N/A   Clear
6:15 AM 42.8 °F 37.0 °F 17.6 °F 36% 30.16 in 10.0 mi East 10.4 mph - N/A   Clear
6:35 AM 42.8 °F 40.1 °F 17.6 °F 36% 30.16 in 10.0 mi ESE 4.6 mph - N/A   Clear
6:55 AM 42.8 °F 38.0 °F 17.6 °F 36% 30.16 in 10.0 mi ESE 8.1 mph 16.1 mph N/A   Clear
7:15 AM 44.6 °F 41.4 °F 17.6 °F 34% 30.16 in 10.0 mi East 5.8 mph - N/A   Clear
7:35 AM 46.4 °F 43.5 °F 17.6 °F 32% 30.16 in 10.0 mi East 5.8 mph - N/A   Clear
7:55 AM 46.4 °F 40.7 °F 17.6 °F 32% 30.15 in 10.0 mi East 12.7 mph 18.4 mph N/A   Clear
8:15 AM 50.0 °F - 14.0 °F 24% 30.14 in 10.0 mi SSE 12.7 mph 20.7 mph N/A   Clear
8:35 AM 50.0 °F - 10.4 °F 20% 30.14 in 10.0 mi South 11.5 mph 29.9 mph N/A   Clear
8:55 AM 51.8 °F - 12.2 °F 21% 30.14 in 10.0 mi SE 15.0 mph 23.0 mph N/A   Clear
9:15 AM 50.0 °F - 12.2 °F 22% 30.13 in 10.0 mi SE 20.7 mph 31.1 mph N/A   Clear
9:35 AM 50.0 °F - 12.2 °F 22% 30.13 in 10.0 mi SSE 19.6 mph 29.9 mph N/A   Clear
9:55 AM 51.8 °F - 12.2 °F 21% 30.13 in 10.0 mi SE 20.7 mph 28.8 mph N/A   Clear
10:15 AM 50.0 °F - 12.2 °F 22% 30.12 in 10.0 mi SE 24.2 mph 29.9 mph N/A   Clear
10:35 AM 50.0 °F - 14.0 °F 24% 30.10 in 10.0 mi SSE 24.2 mph 31.1 mph N/A   Clear
10:55 AM 51.8 °F - 14.0 °F 22% 30.10 in 10.0 mi SSE 17.3 mph 29.9 mph N/A   Clear
11:15 AM 51.8 °F - 14.0 °F 22% 30.10 in 10.0 mi SSE 17.3 mph 29.9 mph N/A   Clear
11:35 AM 51.8 °F - 15.8 °F 24% 30.09 in 10.0 mi SSE 19.6 mph 31.1 mph N/A   Clear
11:55 AM 51.8 °F - 14.0 °F 22% 30.07 in 10.0 mi SSE 23.0 mph 29.9 mph N/A   Clear
12:15 PM 51.8 °F - 17.6 °F 26% 30.08 in 10.0 mi SE 19.6 mph 24.2 mph N/A   Clear
12:35 PM 51.8 °F - 17.6 °F 26% 30.08 in 10.0 mi SE 13.8 mph 25.3 mph N/A   Clear
12:55 PM 51.8 °F - 15.8 °F 24% 30.08 in 10.0 mi SE 11.5 mph 27.6 mph N/A   Clear
1:15 PM 53.6 °F - 15.8 °F 22% 30.06 in 10.0 mi SE 15.0 mph 23.0 mph N/A   Clear
1:35 PM 53.6 °F - 14.0 °F 21% 30.06 in 10.0 mi SE 13.8 mph 25.3 mph N/A   Clear
1:55 PM 53.6 °F - 12.2 °F 19% 30.07 in 10.0 mi SSE 5.8 mph - N/A   Clear
2:15 PM 53.6 °F - 8.6 °F 16% 30.06 in 10.0 mi SE 12.7 mph 18.4 mph N/A   Clear
2:35 PM 53.6 °F - 8.6 °F 16% 30.06 in 10.0 mi SE 13.8 mph 19.6 mph N/A   Clear
2:55 PM 53.6 °F - 6.8 °F 15% 30.05 in 10.0 mi SSE 12.7 mph 18.4 mph N/A   Clear
3:15 PM 53.6 °F - 5.0 °F 14% 30.05 in 10.0 mi SE 11.5 mph 18.4 mph N/A   Clear
3:35 PM 53.6 °F - 5.0 °F 14% 30.05 in 10.0 mi SE 12.7 mph 23.0 mph N/A   Clear
3:55 PM 53.6 °F - 8.6 °F 16% 30.05 in 10.0 mi South 5.8 mph - N/A   Clear
4:15 PM 51.8 °F - 10.4 °F 19% 30.05 in 10.0 mi SE 8.1 mph - N/A   Clear
4:35 PM 51.8 °F - 14.0 °F 22% 30.04 in 10.0 mi SSE 12.7 mph 16.1 mph N/A   Clear
4:55 PM 50.0 °F - 17.6 °F 28% 30.04 in 10.0 mi SSE 21.9 mph - N/A   Clear
5:15 PM 50.0 °F - 17.6 °F 28% 30.04 in 10.0 mi SSE 18.4 mph 27.6 mph N/A   Clear
5:35 PM 48.2 °F - 17.6 °F 30% 30.04 in 10.0 mi SSE 18.4 mph 23.0 mph N/A   Clear
5:55 PM 48.2 °F - 17.6 °F 30% 30.05 in 10.0 mi South 10.4 mph 20.7 mph N/A   Clear
6:15 PM 46.4 °F 40.1 °F 15.8 °F 29% 30.05 in 10.0 mi SSE 15.0 mph 20.7 mph N/A   Clear
6:35 PM 46.4 °F 40.7 °F 14.0 °F 27% 30.05 in 10.0 mi South 12.7 mph 18.4 mph N/A   Clear
6:55 PM 46.4 °F 41.5 °F 14.0 °F 27% 30.05 in 10.0 mi SSE 10.4 mph 18.4 mph N/A   Scattered Clouds
7:15 PM 46.4 °F 42.4 °F 15.8 °F 29% 30.04 in 10.0 mi South 8.1 mph - N/A   Mostly Cloudy
7:35 PM 46.4 °F 41.1 °F 14.0 °F 27% 30.05 in 10.0 mi South 11.5 mph 17.3 mph N/A   Mostly Cloudy
7:55 PM 46.4 °F 41.5 °F 12.2 °F 25% 30.05 in 10.0 mi SSE 10.4 mph 18.4 mph N/A   Mostly Cloudy
8:15 PM 46.4 °F 40.7 °F 10.4 °F 23% 30.04 in 10.0 mi South 12.7 mph 20.7 mph N/A   Mostly Cloudy
8:35 PM 46.4 °F 42.4 °F 12.2 °F 25% 30.04 in 10.0 mi South 8.1 mph - N/A   Scattered Clouds
8:55 PM 46.4 °F 41.5 °F 12.2 °F 25% 30.03 in 10.0 mi SSE 10.4 mph 19.6 mph N/A   Clear
9:15 PM 46.4 °F - 12.2 °F 25% 30.03 in 10.0 mi Calm Calm - N/A   Scattered Clouds
9:35 PM 44.6 °F 41.4 °F 12.2 °F 27% 30.02 in 10.0 mi SE 5.8 mph - N/A   Overcast
9:55 PM 46.4 °F 40.1 °F 14.0 °F 27% 30.01 in 10.0 mi South 15.0 mph 26.5 mph N/A   Overcast
10:15 PM 46.4 °F 41.1 °F 15.8 °F 29% 30.01 in 10.0 mi ESE 11.5 mph 16.1 mph N/A   Overcast
10:35 PM 44.6 °F 35.5 °F 17.6 °F 34% 30.01 in 10.0 mi SE 25.3 mph 42.6 mph N/A   Overcast
10:55 PM 42.8 °F 36.6 °F 23.0 °F 46% 30.04 in 10.0 mi South 11.5 mph 31.1 mph N/A   Overcast
11:15 PM 42.8 °F 38.0 °F 23.0 °F 46% 30.03 in 10.0 mi SSE 8.1 mph 20.7 mph N/A   Overcast
11:35 PM 42.8 °F 38.0 °F 21.2 °F 42% 30.02 in 10.0 mi South 8.1 mph 16.1 mph N/A   Overcast
11:55 PM 42.8 °F 36.2 °F 23.0 °F 46% 30.02 in 10.0 mi South 12.7 mph 23.0 mph N/A   Overcast